[Iaude] MPEC T110: 2023 TM3 [a=0.75,e=0.49,i=0.6,H=26.9]

mpec at marsden.cfa.harvard.edu mpec at marsden.cfa.harvard.edu
Sun Oct 8 19:39:30 EDT 2023


M.P.E.C. 2023-T110                              Issued 2023 October 8, 23:38 UT

     The Minor Planet Electronic Circulars contain information on unusual
         minor planets, routine data on comets and natural satellites,
         and occasional editorial announcements.  They are published
    on behalf of Division F of the International Astronomical Union by the
          Minor Planet Center, Smithsonian Astrophysical Observatory,
                          Cambridge, MA 02138, U.S.A.
			  
             Prepared using the Tamkin Foundation Computer Network

                              MPC at CFA.HARVARD.EDU
            URL https://www.minorplanetcenter.net/    ISSN 1523-6714

                                    2023 TM3                                    


Observations:
     K23T03M*1C2023 10 08.35980703 32 35.243+24 54 03.92         19.54GVET110703
     K23T03M 1C2023 10 08.36466103 32 33.461+24 54 41.94         19.71GVET110703
     K23T03M 1C2023 10 08.36951303 32 31.722+24 55 19.56         19.01GVET110703
     K23T03M 1C2023 10 08.37437303 32 30.224+24 55 55.85         19.16GVET110703
     K23T03M KC2023 10 08.46970003 31 55.816+25 07 57.72         18.93GVET110I52
     K23T03M KC2023 10 08.47097203 31 55.351+25 08 07.12         18.90GVET110I52
     K23T03M KC2023 10 08.47223303 31 54.898+25 08 16.69         18.99GVET110I52
     K23T03M  C2023 10 08.47318503 31 52.559+25 08 00.70         18.9 GVET110H01
     K23T03M KC2023 10 08.47348803 31 54.440+25 08 26.05         19.09GVET110I52
     K23T03M  C2023 10 08.47743403 31 51.056+25 08 32.11         18.6 GVET110H01
     K23T03M  C2023 10 08.48688703 31 47.737+25 09 41.98         18.8 GVET110H01
     K23T03M  C2023 10 08.49449603 31 45.098+25 10 38.06         18.7 GVET110H01
     K23T03M KC2023 10 08.82193003 31 55.05 +25 58 46.7          18.9 GXET110L18
     K23T03M KC2023 10 08.82646703 31 53.96 +25 59 46.0          18.2 GXET110L18
     K23T03M KC2023 10 08.83094603 31 52.95 +26 00 42.2          18.8 GXET110L18
     K23T03M KC2023 10 08.85526003 31 53.76 +26 05 45.5          18.3 GVET110104
     K23T03M KC2023 10 08.85777503 31 52.98 +26 06 19.0          19.1 GVET110M60
     K23T03M KC2023 10 08.85912003 31 52.91 +26 06 37.5          18.2 GVET110104
     K23T03M KC2023 10 08.85968103 31 52.48 +26 06 44.5          19.6 GVET110M60
     K23T03M KC2023 10 08.86231303 31 51.93 +26 07 21.0          19.0 GVET110M60
     K23T03M KC2023 10 08.86282 03 31 46.71 +26 07 49.9          18.5 VqET110L04
     K23T03M KC2023 10 08.86683903 31 51.06 +26 08 22.0          18.4 GVET110104
     K23T03M KC2023 10 08.86719 03 31 45.41 +26 08 48.5          18.7 VqET110L04
     K23T03M KC2023 10 08.87206 03 31 43.97 +26 09 53.6          18.7 VqET110L04
     K23T03M KB2023 10 08.88129603 31 49.30 +26 10 47.8          18.3 GVET110I93
     K23T03M KC2023 10 08.88331503 31 44.67 +26 11 59.0          18.2 GXET110595
     K23T03M KB2023 10 08.88342103 31 48.82 +26 11 17.0          18.4 GVET110I93
     K23T03M KB2023 10 08.88545003 31 48.37 +26 11 45.1          17.8 GVET110I93
     K23T03M KC2023 10 08.88647903 31 43.74 +26 12 42.1          18.3 GXET110595
     K23T03M KC2023 10 08.88728403 31 48.67 +26 12 16.0          18.8 GXET110958
     K23T03M KC2023 10 08.88978803 31 42.79 +26 13 27.5          18.2 GXET110595
     K23T03M KC2023 10 08.89159503 31 47.70 +26 13 15.7          18.5 GXET110958
     K23T03M KC2023 10 08.89876303 31 42.351+26 15 40.21         18.7 GVET110K63
     K23T03M KC2023 10 08.91416603 31 37.433+26 19 17.36         18.3 GVET110K63
     K23T03M KC2023 10 08.91531603 31 35.950+26 17 28.82         18.6 GVET110J95
     K23T03M KC2023 10 08.91784003 31 36.186+26 20 09.85         18.4 GVET110K63
     K23T03M KC2023 10 08.92073103 31 34.428+26 18 44.46         18.9 GVET110J95
     K23T03M  C2023 10 08.95423 03 31 13.96 +26 29 09.4          18.4 GVET110L54
     K23T03M  C2023 10 08.96305 03 31 09.91 +26 31 16.8          18.1 GVET110L54
     K23T03M  C2023 10 08.97075 03 31 05.97 +26 33 06.9          18.5 GVET110L54

Observer details:
104 San Marcello Pistoiese.  Observers P. Bacci, M. Maestripieri.  Measurers
    P. Bacci, L. Tesi, G. Fagioli.  0.60-m F4 Reflector + CCD.
595 Farra d'Isonzo.  Observer E. Pettarin.  0.61-m f/4.5 reflector + CCD.
703 Catalina Sky Survey.  Observer J. B. Fazekas.  Measurers E. C. Beshore, D.
    Fay, J. B. Fazekas, D. C. Fuls, A. R. Gibbs, A. D. Grauer, H. Groeller, J.
    K. Hogan, R. A. Kowalski, S. M. Larson, G. J. Leonard, D. Rankin, R. L.
    Seaman, F. C. Shelly, K. W. Wierzchos.  0.68-m Schmidt + 10K CCD.
958 Observatoire de Dax.  Observers P. Dupouy, J. B. de Vanssay.  Measurer P.
    Dupouy.  0.43-m f/2.7 Reflector + CCD.
H01 Magdalena Ridge Observatory, Socorro.  Observers W. H. Ryan, E. V. Ryan.
    Measurer W. H. Ryan.  2.4-m f/8.9 Ritchey-Chretien + CCD.
I52 Steward Observatory, Mt. Lemmon Station.  Observer J. B. Fazekas.
    Measurers E. C. Beshore, D. Fay, J. B. Fazekas, D. C. Fuls, A. R. Gibbs,
    A. D. Grauer, H. Groeller, J. K. Hogan, R. A. Kowalski, S. M. Larson, G.
    J. Leonard, D. Rankin, R. L. Seaman, F. C. Shelly, K. W. Wierzchos.  1.0-m
    prime focus + CCD.
I93 St Pardon de Conques.  Observer F. Losse.  0.40-m f/3.7 reflector + CMO.
J95 Great Shefford.  Observer P. Birtwhistle.  0.41-m f/6.3 Schmidt-Cassegrain
    + CCD.
K63 G. Pascoli Observatory, Castelvecchio Pascoli.  Observer R. Bacci.  0.41-m
    f/3.75 0.41m f/3.2  Newton + CCD.
L04 ROASTERR-1 Observatory, Cluj-Napoca.  Observer L. Hudin.  0.3-m f/5
    reflector + CCD.
L18 QOS Observatory, Zalistsi.  Observer S. V. Rischenko.  Measurer A. M.
    Kozhukhov.  0.50-m f/3.8 reflector + CCD.
L54 Berthelot Observatory, Hunedoara.  Observers A. Sonka, A. Nedelcu.
    Measurer A. Sonka.  0.50-m f/8 reflector + CCD.
M60 Virgil Observatory, Loiano.  Observer A. Carbognani.  0.30-m f/4.0
    Reflector + CCD.

Orbital elements:
2023 TM3                                                 Earth MOID = 0.0011 AU
Epoch 2023 Sept. 13.0 TT = JDT 2460200.5                Bell                    
M 205.20984              (2000.0)            P               Q                  
n   1.52219752     Peri.  325.07061     -0.97879266     -0.20481761             
a   0.7484372      Node   203.11147     +0.19010229     -0.90118453             
e   0.4880704      Incl.    0.55922     +0.07632855     -0.38198978             
P   0.65           H   26.96          G   0.15           U   8                  
Residuals in seconds of arc
231008 703  2.2+  1.3-    231008 L18  0.3+  0.6-    231008 595  0.3-  0.0
231008 703  0.0   0.5-    231008 104  0.0   0.1+    231008 958  0.5-  0.4+
231008 703  1.4-  0.1-    231008 M60  0.2+  0.4-    231008 595  0.1+  0.1-
231008 703  0.8+  1.0-    231008 104  0.3+  0.2+    231008 958  0.0   0.1-
231008 I52  0.1+  0.1+    231008 M60  0.6-  0.6-    231008 K63  0.0   0.5-
231008 I52  0.1+  0.0     231008 M60  0.3+  0.4+    231008 K63  0.2+  0.5-
231008 I52  0.1+  0.2+    231008 L04  0.0   0.0     231008 J95  0.2+  0.0
231008 H01  0.0   0.1+    231008 104  0.0   0.2+    231008 K63  0.1+  0.2-
231008 I52  0.1+  0.1+    231008 L04  0.2-  0.1+    231008 J95  0.0   0.8-
231008 H01  0.0   0.1+    231008 L04  0.3+  0.2-    231008 L54  0.2+  0.3+
231008 H01  0.1-  0.3+    231008 I93  0.1-  0.2+    231008 L54  0.9-  1.0+
231008 H01  0.1-  0.2+    231008 595  0.1-  0.4+    231008 L54 (5.9-  0.0 )
231008 L18  0.1-  0.4-    231008 I93  0.2-  0.1+
231008 L18  0.6-  0.8+    231008 I93  0.1-  0.0

Ephemeris:
2023 TM3                 a,e,i = 0.75, 0.49, 1                   q = 0.3831
Date    TT    R. A. (2000) Decl.     Delta      r    Elong.  Phase     V
2023 09 08    03 20 22.2 +19 47 28   0.2147  1.1059   111.9    57.7    25.9
...
2023 09 23    03 30 56.1 +20 44 33   0.1156  1.0724   123.9    51.0    24.3
...
2023 10 01    03 33 55.8 +21 25 22   0.06270 1.0435   130.9    46.5    22.8
...
2023 10 07    03 33 47.7 +23 13 31   0.02325 1.0166   136.3    42.8    20.5
2023 10 08    03 32 56.1 +24 18 00   0.01669 1.0117   137.1    42.3    19.7
2023 10 09    03 30 42.3 +26 44 46   0.01015 1.0067   137.7    41.9    18.6
...
2023 10 15    15 36 21.5 -20 27 09   0.02940 0.9737    35.6   143.4    26.6
...
2023 10 23    15 32 51.3 -21 40 00   0.08246 0.9226    27.3   150.4    29.9
...
2023 11 07    15 23 31.8 -21 18 17   0.1911  0.8039    10.3   167.2

M. P. C. Staff               (C) Copyright 2023 MPC           M.P.E.C. 2023-T110





More information about the Iaude mailing list